Flag for Panama Weather past 2 weeks in Panama, Panama

Now
77 °F

Light rain. Scattered clouds.


Feels Like: 78 °F
Forecast: 78 / 85 °F
Wind: No wind

Location: Marcos A. Gelabert

Current Time: Jul 7, 2015 at 9:15:10 AM

Latest Report: Jul 7, 2015 at 8:00 AM


Visibility: 6 mi

Pressure: 29.89 "Hg

Humidity: 94%

Dew point: 75 °F

Location of PanamaLocation

Historic Weather in Panama — Graph

°F

Panama temperature yesterday

Maximum temperature yesterday: 91 °F (at 11:00 AM)
Minimum temperature yesterday: 75 °F (at 6:00 PM)
Average temperature yesterday: 84 °F

Past Weeks' High & Low Weather Summary

 TemperatureHumidityPressure
High95 °F (Jun 26, 2:00 PM)94% (Jun 23, 6:00 AM)29.89 "Hg (Jun 23, 6:00 AM)
Low75 °F (Jul 6, 6:00 PM)49% (Jul 1, 2:00 PM)29.68 "Hg (Jul 3, 3:00 PM)
Average86 °F73%29.80 "Hg
* Reported Jun 22 8:00 AM — Jul 7 8:00 AM, Panama, Weather by CustomWeather, © 2015

Note: Actual official high and low records may vary slightly from our data, if they occured in-between our weather recording intervals... More about our weather records

Advertising

Panama weather history for previous 24 hours

 ConditionsComfort  
Time TempWeatherWind HumidityBarometerVisibility
8:00 AM
Tue, Jul 7
77 °FLight rain. Scattered clouds.No wind94%29.89 "Hg6 mi
7:00 AM77 °FScattered clouds.1 mph89%29.89 "Hg6 mi
6:00 AM77 °FPassing clouds.1 mph89%29.86 "HgN/A
10:00 PM
Mon, Jul 6
79 °FPassing clouds.2 mph94%29.86 "HgN/A
9:00 PM79 °FPassing clouds.2 mph94%29.86 "HgN/A
8:00 PM77 °FPassing clouds.2 mph94%29.83 "HgN/A
7:00 PM77 °FPassing clouds.5 mph89%29.83 "HgN/A
6:00 PM75 °FThunderstorms. Broken clouds.6 mph89%29.83 "Hg6 mi
5:00 PM82 °FScattered showers. Broken clouds.7 mph84%29.80 "Hg5 mi
4:00 PM86 °FScattered clouds.9 mph79%29.77 "HgN/A
3:00 PM88 °FScattered clouds.3 mph70%29.77 "HgN/A
2:00 PM84 °FRain. Broken clouds.6 mph84%29.80 "Hg5 mi
1:00 PM91 °FScattered clouds.8 mph59%29.83 "Hg6 mi
12:00 PM91 °FScattered clouds.7 mph59%29.83 "Hg6 mi
11:00 AM91 °FScattered clouds.7 mph56%29.86 "Hg6 mi
10:00 AM90 °FPassing clouds.8 mph63%29.86 "Hg6 mi
9:00 AM86 °FPassing clouds.5 mph75%29.86 "Hg5 mi
Weather by CustomWeather, © 2015

See weather overviewHow to use our weather pages